This is the latest recevied weather packets stored in our database for station/object HP3ICC-17. If no packets are shown the sender has not sent any weather packets the latest 10 day(s).
| Time | Temp. | Humidity | Pressure | Rain* | Wind** | Luminosity | Snow |
|---|---|---|---|---|---|---|---|
| 1777683633 | 23.33° C | 77% | 1009 hPa | 0 mm | - | - | - |
| 1777682493 | 23.89° C | 77% | 1009 hPa | 0.25 mm | - | - | - |
| 1777682433 | 23.89° C | 77% | 1009 hPa | 0.25 mm | - | - | - |
| 1777681293 | 24.44° C | 77% | 1008 hPa | 0 mm | - | - | - |
| 1777681232 | 24.44° C | 77% | 1008 hPa | 0 mm | - | - | - |
| 1777680092 | 23.89° C | 76% | 1008 hPa | 0 mm | - | - | - |
| 1777680032 | 23.89° C | 76% | 1008 hPa | 0 mm | - | - | - |
| 1777678891 | 24.44° C | 76% | 1008 hPa | 0 mm | - | - | - |
| 1777678832 | 24.44° C | 76% | 1008 hPa | 0 mm | - | - | - |
| 1777677691 | 24.44° C | 72% | 1008 hPa | 0 mm | - | - | - |
| 1777677631 | 24.44° C | 72% | 1008 hPa | 0 mm | - | - | - |
| 1777676491 | 25° C | 72% | 1008 hPa | 1.02 mm | - | - | - |
| 1777676430 | 25° C | 72% | 1008 hPa | 1.02 mm | - | - | - |
| 1777675290 | 25.56° C | 72% | 1008 hPa | 1.02 mm | - | - | - |
| 1777675230 | 25.56° C | 72% | 1008 hPa | 1.02 mm | - | - | - |
| 1777674091 | 26.11° C | 72% | 1007 hPa | 1.27 mm | - | - | - |
| 1777674030 | 26.11° C | 72% | 1007 hPa | 1.27 mm | - | - | - |
| 1777672889 | 25° C | 71% | 1007 hPa | 1.52 mm | - | - | - |
| 1777672829 | 25° C | 71% | 1007 hPa | 1.52 mm | - | - | - |
| 1777671688 | 25.56° C | 71% | 1007 hPa | 0.51 mm | - | - | - |
| 1777671628 | 25.56° C | 71% | 1007 hPa | 0.51 mm | - | - | - |
| 1777670488 | 26.11° C | 71% | 1007 hPa | 0.51 mm | - | - | - |
| 1777670428 | 26.11° C | 71% | 1007 hPa | 0.51 mm | - | - | - |
| 1777669287 | 26.67° C | 71% | 1007 hPa | 1.27 mm | - | - | - |
| 1777669227 | 26.67° C | 71% | 1007 hPa | 1.27 mm | - | - | - |
* Rain latest hour (hover to see other rain measurements)
** Current wind speed in m/s (hover to see current wind gust speed)